Location: Unspecified
(0.0000°N, 0.0000°E)
Time: 16:05:35
(UTC+01:00)

Envisat - Pass Details

Date: 30 October 2021
Orbit: 764 x 766 km, 98.2° (Epoch: 29 November)

Event Time Altitude Azimuth Distance (km) Brightness Sun altitude
Rises 06:07:27 0° 28° (NNE) 3,213 6.4 -23.3°
Reaches altitude 10° 06:09:56 10° 37° (NE) 2,290 5.7 -22.7°
Maximum altitude 06:14:30 35° 102° (ESE) 1,217 4.6 -21.6°
Drops below altitude 10° 06:19:05 10° 167° (SSE) 2,299 5.8 -20.5°
Sets 06:21:33 0° 176° (S) 3,227 6.5 -19.9°
